EWS-G2 (GOES 15)

Last updated on Wed May 14 2025 00:02:19 GMT+0000 (Coordinated Universal Time)

1 36411U 10008A 25133.53488650 .00000051 00000+0 00000+0 0 9991 2 36411 0.2394 85.9995 0001152 164.9680 234.8244 1.00277345 55638
UTC large
Height (km)
Speed (km/s)
/
Latitude / Longitude
Inclination (degrees)
Orbital Period (minutes)
Azimuth
Elevation
Range (km)
Doppler Factor

Next 0 passes for location: London (51.5072 / 0.1276)

Sorry there are no passes over London.